Millington, TN

5:36 PM CDT on June 28, 2017 (GMT -0500)
Millington Municipal

Weather History for KNQA - February, 2014

Change the Weather History Date:

Sunday, February 16, 2014

  Actual Average Record
Temperature  
Mean Temperature 46 °F -  
Max Temperature 55 °F 53 °F 73 °F (2011)
Min Temperature 37 °F 36 °F 12 °F (2007)
Degree Days  
Heating Degree Days 19    
Moisture  
Dew Point 33 °F    
Average Humidity 64    
Maximum Humidity 75    
Minimum Humidity 42    
Precipitation  
Precipitation 0.00 in - - ()
Sea Level Pressure  
Sea Level Pressure 30.11 in    
Wind  
Wind Speed 5 mph (WNW)    
Max Wind Speed 10 mph    
Max Gust Speed -    
Visibility 10 miles    
Events      
Averages and records for this station are not official NWS values.
T = Trace of Precipitation, MM = Missing Value Source: NWS Daily Summary

Daily Weather History Graph

Daily Weather History Graph

Search for Another Location

Airport or City:

Trip Planner

Search our weather history database for the weather conditions in past years. The results will help you decide how hot, cold, wet, or windy it might be!

Date:

Astronomy

Feb. 16, 2014 Rise Set
Actual Time 6:44 AM CST 5:42 PM CST
Civil Twilight 6:18 AM CST 6:08 PM CST
Nautical Twilight 5:49 AM CST 6:38 PM CST
Astronomical Twilight 5:19 AM CST 7:08 PM CST
Moon 7:33 PM CST (2/16) 7:19 AM CST (2/16)
Length of Visible Light 11h 49m
Length of Day
10h 58m
Full, 97% of the Moon is Illuminated
Feb 16
Full
Feb 22
Last Quarter
Mar 1
New
Mar 8
First Quarter
Mar 16
Full

Hourly Weather History & Observations

Time (CST) Temp. Windchill Dew Point Humidity Pressure Visibility Wind Dir Wind Speed Gust Speed Precip Events Conditions
2:15 AM 39.2 °F 35.0 °F 32.0 °F 75% 30.06 in 10.0 mi WSW 5.8 mph - N/A   Clear
2:35 AM 41.0 °F 38.0 °F 32.0 °F 70% 30.06 in 10.0 mi WSW 4.6 mph - N/A   Clear
2:55 AM 41.0 °F 38.0 °F 32.0 °F 70% 30.06 in 10.0 mi SW 4.6 mph - N/A   Clear
3:15 AM 39.2 °F 37.0 °F 32.0 °F 75% 30.06 in 10.0 mi WSW 3.5 mph - N/A   Clear
3:35 AM 39.2 °F 35.9 °F 30.2 °F 70% 30.05 in 10.0 mi WSW 4.6 mph - N/A   Clear
3:55 AM 37.4 °F 33.8 °F 30.2 °F 75% 30.05 in 10.0 mi WSW 4.6 mph - N/A   Clear
4:15 AM 39.2 °F 35.9 °F 32.0 °F 75% 30.05 in 10.0 mi SW 4.6 mph - N/A   Clear
4:35 AM 41.0 °F 39.0 °F 32.0 °F 70% 30.05 in 10.0 mi WSW 3.5 mph - N/A   Clear
4:55 AM 39.2 °F 35.9 °F 32.0 °F 75% 30.06 in 10.0 mi WSW 4.6 mph - N/A   Clear
5:30 AM 39.2 °F 35.9 °F 17.6 °F 42% 30.07 in 10.0 mi West 4.6 mph - N/A   Clear
5:50 AM 41.0 °F 38.0 °F 32.0 °F 70% 30.08 in 10.0 mi West 4.6 mph - N/A   Clear
6:50 AM 39.2 °F 35.9 °F 30.2 °F 70% 30.09 in 10.0 mi NW 4.6 mph - N/A   Clear
7:50 AM 42.8 °F 40.1 °F 33.8 °F 70% 30.12 in 10.0 mi NW 4.6 mph - N/A   Partly Cloudy
8:50 AM 44.6 °F 39.2 °F 33.8 °F 66% 30.15 in 10.0 mi NW 10.4 mph - N/A   Partly Cloudy
9:50 AM 48.2 °F - 35.6 °F 62% 30.17 in 10.0 mi WNW 9.2 mph - N/A   Partly Cloudy
10:50 AM 50.0 °F - 35.6 °F 58% 30.17 in 10.0 mi WNW 6.9 mph - N/A   Partly Cloudy
11:55 AM 53.6 °F - 37.4 °F 54% 30.17 in 10.0 mi WNW 6.9 mph - N/A   Scattered Clouds
12:50 PM 55.4 °F - 37.4 °F 51% 30.15 in 10.0 mi NW 9.2 mph - N/A   Scattered Clouds
1:55 PM 53.6 °F - 35.6 °F 51% 30.15 in 10.0 mi North 4.6 mph - N/A   Mostly Cloudy
2:55 PM 53.6 °F - 35.6 °F 51% 30.14 in 10.0 mi Variable 3.5 mph - N/A   Mostly Cloudy
3:55 PM 53.6 °F - 35.6 °F 51% 30.15 in 10.0 mi NW 4.6 mph - N/A   Mostly Cloudy
4:55 PM 51.8 °F - 37.4 °F 58% 30.16 in 10.0 mi North 5.8 mph - N/A   Mostly Cloudy
5:55 PM 46.4 °F 45.2 °F 35.6 °F 66% 30.17 in 10.0 mi NNE 3.5 mph - N/A   Mostly Cloudy